26-05-2022, 00:00:09,    267,    1.0,    9.9,   0.00,   0.00, 1015.2,   92.6, -999.0
26-05-2022, 00:00:19,    182,    1.2,   10.0,   0.00,   0.00, 1015.2,   92.6, -999.0
26-05-2022, 00:00:29,    222,    2.2,    9.9,   0.00,   0.00, 1015.2,   92.7, -999.0
26-05-2022, 00:00:39,    205,    2.8,    9.9,   0.00,   0.00, 1015.2,   92.6, -999.0
26-05-2022, 00:00:49,    210,    0.9,    9.9,   0.00,   0.00, 1015.2,   92.6, -999.0
26-05-2022, 00:00:59,    239,    0.7,    9.9,   0.00,   0.00, 1015.2,   92.6, -999.0
26-05-2022, 00:01:08,    237,    1.4,   10.0,   0.00,   0.00, 1015.2,   92.7, -999.0
26-05-2022, 00:01:18,    250,    2.6,   10.0,   0.00,   0.00, 1015.2,   92.8, -999.0
26-05-2022, 00:01:29,    236,    2.2,   10.0,   0.00,   0.00, 1015.2,   92.6, -999.0
26-05-2022, 00:01:38,    254,    2.0,   10.0,   0.00,   0.00, 1015.2,   92.7, -999.0
26-05-2022, 00:01:48,    254,    0.5,   10.1,   0.00,   0.00, 1015.2,   92.7, -999.0
26-05-2022, 00:01:58,    254,    0.0,    9.9,   0.00,   0.00, 1015.1,   92.5, -999.0
26-05-2022, 00:02:08,    254,    0.0,    9.8,   0.00,   0.00, 1015.1,   92.3, -999.0
26-05-2022, 00:02:18,    254,    0.0,    9.8,   0.00,   0.00, 1015.1,   92.4, -999.0
26-05-2022, 00:02:28,    253,    0.0,    9.8,   0.00,   0.00, 1015.1,   92.3, -999.0
26-05-2022, 00:02:38,    254,    0.0,    9.8,   0.00,   0.00, 1015.1,   92.4, -999.0
26-05-2022, 00:02:48,    252,    0.0,    9.9,   0.00,   0.00, 1015.1,   92.3, -999.0
26-05-2022, 00:02:58,    251,    0.0,    9.9,   0.00,   0.00, 1015.1,   92.5, -999.0
26-05-2022, 00:03:08,    251,    0.0,    9.9,   0.00,   0.00, 1015.2,   92.5, -999.0
26-05-2022, 00:03:18,    229,    0.7,    9.9,   0.00,   0.00, 1015.2,   92.7, -999.0
26-05-2022, 00:03:28,    232,    1.0,   10.0,   0.00,   0.00, 1015.3,   92.8, -999.0
26-05-2022, 00:03:38,    232,    1.0,   10.0,   0.00,   0.00, 1015.2,   92.9, -999.0
26-05-2022, 00:03:47,    232,    0.1,    9.9,   0.00,   0.00, 1015.2,   92.6, -999.0
26-05-2022, 00:03:58,    218,    0.0,    9.8,   0.00,   0.00, 1015.1,   92.5, -999.0
26-05-2022, 00:04:08,    231,    1.1,    9.9,   0.00,   0.00, 1015.2,   92.8, -999.0
26-05-2022, 00:04:17,    228,    2.2,    9.9,   0.00,   0.00, 1015.2,   92.9, -999.0
26-05-2022, 00:04:27,    258,    1.7,   10.0,   0.00,   0.00, 1015.3,   92.9, -999.0
26-05-2022, 00:04:38,    267,    0.8,   10.0,   0.00,   0.00, 1015.2,   92.9, -999.0
26-05-2022, 00:04:47,    261,    0.4,    9.9,   0.00,   0.00, 1015.2,   92.9, -999.0
26-05-2022, 00:04:57,    261,    0.0,    9.8,   0.00,   0.00, 1015.1,   92.6, -999.0
26-05-2022, 00:05:08,    240,    0.0,    9.8,   0.00,   0.00, 1015.2,   92.6, -999.0
26-05-2022, 00:05:17,    225,    1.4,    9.9,   0.00,   0.00, 1015.3,   92.9, -999.0
26-05-2022, 00:05:27,    238,    3.0,    9.9,   0.00,   0.00, 1015.2,   93.0, -999.0
26-05-2022, 00:05:37,    278,    2.7,    9.9,   0.00,   0.00, 1015.2,   93.1, -999.0
26-05-2022, 00:05:47,    203,    1.2,   10.0,   0.00,   0.00, 1015.2,   93.0, -999.0
26-05-2022, 00:05:57,    228,    3.2,    9.9,   0.00,   0.00, 1015.2,   93.1, -999.0
26-05-2022, 00:06:07,    228,    3.3,    9.9,   0.00,   0.00, 1015.2,   93.0, -999.0
26-05-2022, 00:06:17,    218,    3.0,    9.9,   0.00,   0.00, 1015.2,   93.0, -999.0
26-05-2022, 00:06:27,    217,    0.6,    9.9,   0.00,   0.00, 1015.2,   93.1, -999.0
26-05-2022, 00:06:37,    216,    0.4,    9.9,   0.00,   0.00, 1015.2,   93.0, -999.0
26-05-2022, 00:06:47,    217,    0.6,    9.9,   0.00,   0.00, 1015.2,   93.0, -999.0
26-05-2022, 00:06:56,    217,    0.9,    9.9,   0.00,   0.00, 1015.2,   93.1, -999.0
26-05-2022, 00:07:07,    221,    1.2,    9.9,   0.00,   0.00, 1015.3,   93.2, -999.0
26-05-2022, 00:07:17,    223,    1.0,   10.0,   0.00,   0.00, 1015.2,   93.1, -999.0
26-05-2022, 00:07:26,    223,    0.0,    9.9,   0.00,   0.00, 1015.1,   92.8, -999.0
26-05-2022, 00:07:37,    223,    0.0,    9.9,   0.00,   0.00, 1015.1,   92.9, -999.0
26-05-2022, 00:07:47,    224,    0.2,    9.9,   0.00,   0.00, 1015.2,   92.9, -999.0
26-05-2022, 00:07:56,    220,    0.5,   10.0,   0.00,   0.00, 1015.2,   93.0, -999.0
26-05-2022, 00:08:06,    244,    0.3,    9.9,   0.00,   0.00, 1015.2,   92.9, -999.0
26-05-2022, 00:08:17,    252,    1.9,    9.9,   0.00,   0.00, 1015.3,   93.2, -999.0
26-05-2022, 00:08:26,    253,    1.2,    9.9,   0.00,   0.00, 1015.3,   93.1, -999.0
26-05-2022, 00:08:36,    253,    0.6,    9.9,   0.00,   0.00, 1015.2,   93.1, -999.0
26-05-2022, 00:08:46,    214,    0.1,    9.9,   0.00,   0.00, 1015.2,   93.0, -999.0
26-05-2022, 00:08:56,    214,    0.0,    9.9,   0.00,   0.00, 1015.2,   92.8, -999.0
26-05-2022, 00:09:06,    214,    0.0,    9.9,   0.00,   0.00, 1015.1,   92.8, -999.0
26-05-2022, 00:09:16,    214,    0.0,    9.8,   0.00,   0.00, 1015.1,   92.7, -999.0
26-05-2022, 00:09:26,    229,    0.5,    9.8,   0.00,   0.00, 1015.2,   93.0, -999.0
26-05-2022, 00:09:36,    251,    2.7,    9.8,   0.00,   0.00, 1015.2,   93.2, -999.0
26-05-2022, 00:09:46,    249,    0.4,    9.9,   0.00,   0.00, 1015.2,   93.2, -999.0
26-05-2022, 00:09:56,    216,    1.3,    9.9,   0.00,   0.00, 1015.2,   93.1, -999.0
26-05-2022, 00:10:06,    225,    0.4,    9.9,   0.00,   0.00, 1015.2,   93.0, -999.0
26-05-2022, 00:10:16,    222,    2.3,    9.8,   0.00,   0.00, 1015.2,   93.1, -999.0
26-05-2022, 00:10:26,    240,    0.9,    9.8,   0.00,   0.00, 1015.2,   93.1, -999.0
26-05-2022, 00:10:35,    227,    0.8,    9.9,   0.00,   0.00, 1015.1,   93.0, -999.0
26-05-2022, 00:10:46,    245,    2.3,    9.9,   0.00,   0.00, 1015.2,   93.2, -999.0
26-05-2022, 00:10:56,    245,    0.8,    9.9,   0.00,   0.00, 1015.2,   93.2, -999.0
26-05-2022, 00:11:05,    212,    1.6,    9.9,   0.00,   0.00, 1015.2,   93.1, -999.0
26-05-2022, 00:11:15,    254,    1.3,    9.9,   0.00,   0.00, 1015.2,   93.2, -999.0
26-05-2022, 00:11:25,    252,    0.8,    9.8,   0.00,   0.00, 1015.2,   93.2, -999.0
26-05-2022, 00:11:35,    230,    0.4,    9.9,   0.00,   0.00, 1015.2,   93.3, -999.0
26-05-2022, 00:11:45,    229,    0.2,    9.9,   0.00,   0.00, 1015.2,   93.1, -999.0
26-05-2022, 00:11:55,    216,    1.3,    9.9,   0.00,   0.00, 1015.2,   93.3, -999.0
26-05-2022, 00:12:05,    245,    1.9,    9.9,   0.00,   0.00, 1015.2,   93.4, -999.0
26-05-2022, 00:12:15,    235,    2.0,    9.9,   0.00,   0.00, 1015.2,   93.3, -999.0
26-05-2022, 00:12:25,    221,    1.1,    9.9,   0.00,   0.00, 1015.3,   93.4, -999.0
26-05-2022, 00:12:35,    219,    0.2,    9.9,   0.00,   0.00, 1015.2,   93.2, -999.0
26-05-2022, 00:12:45,    219,    0.0,    9.8,   0.00,   0.00, 1015.1,   93.0, -999.0
26-05-2022, 00:12:55,    234,    0.6,    9.8,   0.00,   0.00, 1015.2,   93.3, -999.0
26-05-2022, 00:13:05,    198,    0.7,    9.9,   0.00,   0.00, 1015.2,   93.4, -999.0
26-05-2022, 00:13:15,    197,    1.0,    9.9,   0.00,   0.00, 1015.2,   93.4, -999.0
26-05-2022, 00:13:25,    251,    1.8,    9.9,   0.00,   0.00, 1015.2,   93.5, -999.0
26-05-2022, 00:13:35,    220,    1.6,    9.9,   0.00,   0.00, 1015.2,   93.5, -999.0
26-05-2022, 00:13:44,    220,    0.6,    9.9,   0.00,   0.00, 1015.3,   93.4, -999.0
26-05-2022, 00:13:55,    235,    1.7,    9.9,   0.00,   0.00, 1015.2,   93.5, -999.0
26-05-2022, 00:14:05,    289,    1.2,    9.9,   0.00,   0.00, 1015.2,   93.5, -999.0
26-05-2022, 00:14:14,    202,    0.7,    9.9,   0.00,   0.00, 1015.2,   93.5, -999.0
26-05-2022, 00:14:25,    201,    0.6,    9.9,   0.00,   0.00, 1015.2,   93.3, -999.0
26-05-2022, 00:14:34,    203,    0.0,    9.8,   0.00,   0.00, 1015.1,   93.1, -999.0
26-05-2022, 00:14:44,    234,    0.8,    9.8,   0.00,   0.00, 1015.2,   93.5, -999.0
26-05-2022, 00:14:54,    249,    2.4,    9.9,   0.00,   0.00, 1015.2,   93.6, -999.0
26-05-2022, 00:15:04,    244,    1.0,    9.9,   0.00,   0.00, 1015.2,   93.6, -999.0
26-05-2022, 00:15:14,    222,    1.0,    9.9,   0.00,   0.00, 1015.2,   93.6, -999.0
26-05-2022, 00:15:24,    221,    0.4,    9.9,   0.00,   0.00, 1015.2,   93.5, -999.0
26-05-2022, 00:15:34,    222,    0.9,    9.9,   0.00,   0.00, 1015.2,   93.6, -999.0
26-05-2022, 00:15:44,    231,    0.3,    9.9,   0.00,   0.00, 1015.2,   93.5, -999.0
26-05-2022, 00:15:54,    213,    0.1,    9.9,   0.00,   0.00, 1015.1,   93.3, -999.0
26-05-2022, 00:16:04,    233,    0.9,    9.9,   0.00,   0.00, 1015.2,   93.6, -999.0
26-05-2022, 00:16:14,    216,    0.4,    9.9,   0.00,   0.00, 1015.2,   93.6, -999.0
26-05-2022, 00:16:24,    255,    0.9,    9.9,   0.00,   0.00, 1015.2,   93.4, -999.0
26-05-2022, 00:16:34,    238,    0.5,    9.9,   0.00,   0.00, 1015.2,   93.5, -999.0
26-05-2022, 00:16:44,    237,    0.8,    9.9,   0.00,   0.00, 1015.2,   93.5, -999.0
26-05-2022, 00:16:54,    204,    1.0,    9.9,   0.00,   0.00, 1015.2,   93.5, -999.0
26-05-2022, 00:17:04,    203,    0.3,    9.8,   0.00,   0.00, 1015.2,   93.4, -999.0
26-05-2022, 00:17:14,    205,    0.3,    9.9,   0.00,   0.00, 1015.2,   93.5, -999.0
26-05-2022, 00:17:23,    262,    0.7,    9.9,   0.00,   0.00, 1015.2,   93.6, -999.0
26-05-2022, 00:17:34,    270,    1.6,    9.9,   0.00,   0.00, 1015.3,   93.6, -999.0
26-05-2022, 00:17:43,    269,    0.2,    9.8,   0.00,   0.00, 1015.2,   93.5, -999.0
26-05-2022, 00:17:53,    281,    0.6,    9.8,   0.00,   0.00, 1015.2,   93.4, -999.0
26-05-2022, 00:18:03,    243,    1.6,    9.9,   0.00,   0.00, 1015.2,   93.6, -999.0
26-05-2022, 00:18:13,    246,    1.2,    9.9,   0.00,   0.00, 1015.2,   93.6, -999.0
26-05-2022, 00:18:23,    247,    2.1,    9.9,   0.00,   0.00, 1015.2,   93.6, -999.0
26-05-2022, 00:18:33,    251,    1.6,    9.9,   0.00,   0.00, 1015.2,   93.6, -999.0
26-05-2022, 00:18:43,    256,    0.8,    9.8,   0.00,   0.00, 1015.2,   93.6, -999.0
26-05-2022, 00:18:53,    254,    0.3,    9.8,   0.00,   0.00, 1015.2,   93.5, -999.0
26-05-2022, 00:19:03,    253,    0.2,    9.9,   0.00,   0.00, 1015.2,   93.6, -999.0
26-05-2022, 00:19:13,    253,    0.0,    9.7,   0.00,   0.00, 1015.1,   93.3, -999.0
26-05-2022, 00:19:23,    254,    0.2,    9.8,   0.00,   0.00, 1015.2,   93.5, -999.0
26-05-2022, 00:19:33,    254,    0.0,    9.7,   0.00,   0.00, 1015.1,   93.3, -999.0
26-05-2022, 00:19:43,    254,    0.0,    9.7,   0.00,   0.00, 1015.1,   93.4, -999.0
26-05-2022, 00:19:53,    253,    0.3,    9.8,   0.00,   0.00, 1015.2,   93.5, -999.0
26-05-2022, 00:20:03,    218,    0.5,    9.9,   0.00,   0.00, 1015.2,   93.6, -999.0
26-05-2022, 00:20:13,    218,    0.1,    9.8,   0.00,   0.00, 1015.2,   93.5, -999.0
26-05-2022, 00:20:22,    246,    0.9,    9.8,   0.00,   0.00, 1015.2,   93.7, -999.0
26-05-2022, 00:20:32,    245,    1.1,    9.8,   0.00,   0.00, 1015.2,   93.9, -999.0
26-05-2022, 00:20:43,    169,    0.4,    9.8,   0.00,   0.00, 1015.2,   93.6, -999.0
26-05-2022, 00:20:52,    169,    0.0,    9.7,   0.00,   0.00, 1015.1,   93.3, -999.0
26-05-2022, 00:21:02,    169,    0.0,    9.7,   0.00,   0.00, 1015.1,   93.3, -999.0
26-05-2022, 00:21:13,    169,    0.0,    9.7,   0.00,   0.00, 1015.1,   93.3, -999.0
26-05-2022, 00:21:22,    169,    0.0,    9.7,   0.00,   0.00, 1015.1,   93.3, -999.0
26-05-2022, 00:21:32,    215,    0.0,    9.7,   0.00,   0.00, 1015.1,   93.4, -999.0
26-05-2022, 00:21:42,    263,    0.6,    9.7,   0.00,   0.00, 1015.1,   93.6, -999.0
26-05-2022, 00:21:52,    209,    0.7,    9.8,   0.00,   0.00, 1015.2,   93.7, -999.0
26-05-2022, 00:22:02,    209,    0.2,    9.8,   0.00,   0.00, 1015.1,   93.6, -999.0
26-05-2022, 00:22:12,    209,    0.0,    9.7,   0.00,   0.00, 1015.1,   93.4, -999.0
26-05-2022, 00:22:22,    232,    0.5,    9.7,   0.00,   0.00, 1015.2,   93.7, -999.0
26-05-2022, 00:22:32,    230,    0.4,    9.8,   0.00,   0.00, 1015.2,   93.7, -999.0
26-05-2022, 00:22:42,    228,    0.0,    9.7,   0.00,   0.00, 1015.1,   93.6, -999.0
26-05-2022, 00:22:52,    229,    0.0,    9.7,   0.00,   0.00, 1015.1,   93.6, -999.0
26-05-2022, 00:23:02,    254,    0.4,    9.7,   0.00,   0.00, 1015.2,   93.7, -999.0
26-05-2022, 00:23:12,    193,    0.7,    9.8,   0.00,   0.00, 1015.2,   94.0, -999.0
26-05-2022, 00:23:22,    249,    2.7,    9.8,   0.00,   0.00, 1015.2,   93.8, -999.0
26-05-2022, 00:23:31,    216,    2.2,    9.8,   0.00,   0.00, 1015.2,   94.0, -999.0
26-05-2022, 00:23:42,    279,    3.6,    9.8,   0.00,   0.00, 1015.2,   93.8, -999.0
26-05-2022, 00:23:52,    229,    1.6,    9.8,   0.00,   0.00, 1015.2,   93.9, -999.0
26-05-2022, 00:24:01,    226,    1.0,    9.8,   0.00,   0.00, 1015.2,   93.9, -999.0
26-05-2022, 00:24:11,    226,    0.6,    9.7,   0.00,   0.00, 1015.2,   93.9, -999.0
26-05-2022, 00:24:22,    227,    0.0,    9.7,   0.00,   0.00, 1015.2,   93.6, -999.0
26-05-2022, 00:24:31,    229,    0.1,    9.7,   0.00,   0.00, 1015.2,   93.7, -999.0
26-05-2022, 00:24:41,    229,    0.0,    9.7,   0.00,   0.00, 1015.1,   93.6, -999.0
26-05-2022, 00:24:51,    229,    0.0,    9.7,   0.00,   0.00, 1015.1,   93.6, -999.0
26-05-2022, 00:25:01,    229,    0.0,    9.7,   0.00,   0.00, 1015.1,   93.5, -999.0
26-05-2022, 00:25:11,    229,    0.0,    9.7,   0.00,   0.00, 1015.1,   93.6, -999.0
26-05-2022, 00:25:21,    229,    0.0,    9.7,   0.00,   0.00, 1015.1,   93.7, -999.0
26-05-2022, 00:25:31,    225,    0.4,    9.7,   0.00,   0.00, 1015.2,   93.9, -999.0
26-05-2022, 00:25:41,    269,    1.3,    9.8,   0.00,   0.00, 1015.2,   94.0, -999.0
26-05-2022, 00:25:51,    262,    0.8,    9.8,   0.00,   0.00, 1015.2,   94.0, -999.0
26-05-2022, 00:26:01,    199,    0.3,    9.8,   0.00,   0.00, 1015.2,   93.9, -999.0
26-05-2022, 00:26:11,    201,    0.1,    9.8,   0.00,   0.00, 1015.2,   93.9, -999.0
26-05-2022, 00:26:21,    201,    0.0,    9.6,   0.00,   0.00, 1015.1,   93.7, -999.0
26-05-2022, 00:26:31,    235,    0.1,    9.7,   0.00,   0.00, 1015.2,   93.9, -999.0
26-05-2022, 00:26:40,    235,    0.3,    9.8,   0.00,   0.00, 1015.2,   94.1, -999.0
26-05-2022, 00:26:51,    239,    0.0,    9.6,   0.00,   0.00, 1015.2,   93.8, -999.0
26-05-2022, 00:27:01,    239,    0.1,    9.8,   0.00,   0.00, 1015.2,   93.9, -999.0
26-05-2022, 00:27:10,    270,    0.2,    9.7,   0.00,   0.00, 1015.2,   93.9, -999.0
26-05-2022, 00:27:20,    264,    2.1,    9.8,   0.00,   0.00, 1015.3,   94.1, -999.0
26-05-2022, 00:27:31,    258,    0.8,    9.8,   0.00,   0.00, 1015.3,   94.1, -999.0
26-05-2022, 00:27:40,    258,    0.0,    9.7,   0.00,   0.00, 1015.2,   93.8, -999.0
26-05-2022, 00:27:50,    204,    0.4,    9.7,   0.00,   0.00, 1015.2,   93.9, -999.0
26-05-2022, 00:28:00,    217,    0.5,    9.8,   0.00,   0.00, 1015.2,   94.1, -999.0
26-05-2022, 00:28:10,    254,    0.3,    9.8,   0.00,   0.00, 1015.2,   94.0, -999.0
26-05-2022, 00:28:20,    210,    0.6,    9.7,   0.00,   0.00, 1015.2,   94.0, -999.0
26-05-2022, 00:28:30,    212,    1.5,    9.8,   0.00,   0.00, 1015.3,   94.1, -999.0
26-05-2022, 00:28:40,    208,    0.3,    9.7,   0.00,   0.00, 1015.2,   94.1, -999.0
26-05-2022, 00:28:50,    209,    0.0,    9.7,   0.00,   0.00, 1015.1,   94.0, -999.0
26-05-2022, 00:29:00,    247,    0.1,    9.7,   0.00,   0.00, 1015.2,   94.0, -999.0
26-05-2022, 00:29:10,    253,    0.6,    9.7,   0.00,   0.00, 1015.2,   94.1, -999.0
26-05-2022, 00:29:20,    245,    1.0,    9.8,   0.00,   0.00, 1015.2,   94.3, -999.0
26-05-2022, 00:29:30,    257,    0.9,    9.7,   0.00,   0.00, 1015.3,   94.1, -999.0
26-05-2022, 00:29:40,    283,    2.2,    9.7,   0.00,   0.00, 1015.2,   94.2, -999.0
26-05-2022, 00:29:49,    279,    1.4,    9.8,   0.00,   0.00, 1015.2,   94.2, -999.0
26-05-2022, 00:30:00,    278,    0.3,    9.7,   0.00,   0.00, 1015.2,   94.1, -999.0
26-05-2022, 00:30:10,    278,    0.0,    9.6,   0.00,   0.00, 1015.2,   93.9, -999.0
26-05-2022, 00:30:19,    277,    0.4,    9.7,   0.00,   0.00, 1015.2,   94.1, -999.0
26-05-2022, 00:30:30,    258,    0.7,    9.8,   0.00,   0.00, 1015.2,   94.1, -999.0
26-05-2022, 00:30:40,    272,    2.3,    9.8,   0.00,   0.00, 1015.3,   94.2, -999.0
26-05-2022, 00:30:49,    259,    2.3,    9.7,   0.00,   0.00, 1015.3,   94.2, -999.0
26-05-2022, 00:30:59,    254,    3.1,    9.7,   0.00,   0.00, 1015.3,   94.2, -999.0
26-05-2022, 00:31:09,    256,    1.1,    9.7,   0.00,   0.00, 1015.3,   94.3, -999.0
26-05-2022, 00:31:19,    254,    0.2,    9.7,   0.00,   0.00, 1015.2,   94.2, -999.0
26-05-2022, 00:31:29,    254,    0.1,    9.7,   0.00,   0.00, 1015.2,   94.1, -999.0
26-05-2022, 00:31:39,    253,    0.0,    9.7,   0.00,   0.00, 1015.2,   94.0, -999.0
26-05-2022, 00:31:49,    267,    0.9,    9.7,   0.00,   0.00, 1015.3,   94.4, -999.0
26-05-2022, 00:31:59,    267,    0.2,    9.7,   0.00,   0.00, 1015.2,   94.1, -999.0
26-05-2022, 00:32:09,    254,    1.4,    9.7,   0.00,   0.00, 1015.2,   94.3, -999.0
26-05-2022, 00:32:19,    198,    2.6,    9.7,   0.00,   0.00, 1015.2,   94.3, -999.0
26-05-2022, 00:32:29,    229,    1.4,    9.7,   0.00,   0.00, 1015.3,   94.4, -999.0
26-05-2022, 00:32:39,    256,    1.6,    9.7,   0.00,   0.00, 1015.2,   94.4, -999.0
26-05-2022, 00:32:49,    252,    0.3,    9.7,   0.00,   0.00, 1015.2,   94.4, -999.0
26-05-2022, 00:32:59,    252,    0.4,    9.7,   0.00,   0.00, 1015.2,   94.5, -999.0
26-05-2022, 00:33:09,    262,    0.4,    9.7,   0.00,   0.00, 1015.2,   94.4, -999.0
26-05-2022, 00:33:19,    261,    0.1,    9.7,   0.00,   0.00, 1015.2,   94.3, -999.0
26-05-2022, 00:33:28,    256,    2.2,    9.7,   0.00,   0.00, 1015.2,   94.5, -999.0
26-05-2022, 00:33:39,    247,    1.3,    9.7,   0.00,   0.00, 1015.2,   94.4, -999.0
26-05-2022, 00:33:48,    260,    1.1,    9.7,   0.00,   0.00, 1015.3,   94.6, -999.0
26-05-2022, 00:33:58,    258,    1.3,    9.7,   0.00,   0.00, 1015.3,   94.5, -999.0
26-05-2022, 00:34:09,    256,    0.6,    9.6,   0.00,   0.00, 1015.2,   94.5, -999.0
26-05-2022, 00:34:18,    256,    0.0,    9.7,   0.00,   0.00, 1015.1,   94.2, -999.0
26-05-2022, 00:34:28,    256,    0.0,    9.7,   0.00,   0.00, 1015.1,   94.1, -999.0
26-05-2022, 00:34:38,    198,    0.0,    9.7,   0.00,   0.00, 1015.2,   94.4, -999.0
26-05-2022, 00:34:48,    200,    0.0,    9.6,   0.00,   0.00, 1015.1,   94.2, -999.0
26-05-2022, 00:34:58,    220,    0.5,    9.7,   0.00,   0.00, 1015.2,   94.5, -999.0
26-05-2022, 00:35:08,    224,    0.1,    9.7,   0.00,   0.00, 1015.2,   94.5, -999.0
26-05-2022, 00:35:18,    230,    0.5,    9.7,   0.00,   0.00, 1015.2,   94.6, -999.0
26-05-2022, 00:35:28,    276,    0.3,    9.7,   0.00,   0.00, 1015.2,   94.5, -999.0
26-05-2022, 00:35:38,    268,    0.3,    9.7,   0.00,   0.00, 1015.2,   94.5, -999.0
26-05-2022, 00:35:48,    262,    1.5,    9.7,   0.00,   0.00, 1015.3,   94.7, -999.0
26-05-2022, 00:35:58,    248,    2.0,    9.7,   0.00,   0.00, 1015.3,   94.6, -999.0
26-05-2022, 00:36:08,    226,    1.8,    9.7,   0.00,   0.00, 1015.3,   94.7, -999.0
26-05-2022, 00:36:18,    208,    0.4,    9.7,   0.00,   0.00, 1015.2,   94.5, -999.0
26-05-2022, 00:36:28,    208,    0.0,    9.7,   0.00,   0.00, 1015.2,   94.3, -999.0
26-05-2022, 00:36:38,    224,    0.2,    9.7,   0.00,   0.00, 1015.2,   94.6, -999.0
26-05-2022, 00:36:48,    224,    0.2,    9.7,   0.00,   0.00, 1015.2,   94.6, -999.0
26-05-2022, 00:36:57,    227,    0.0,    9.7,   0.00,   0.00, 1015.2,   94.4, -999.0
26-05-2022, 00:37:07,    219,    0.0,    9.6,   0.00,   0.00, 1015.1,   94.4, -999.0
26-05-2022, 00:37:18,    219,    0.0,    9.7,   0.00,   0.00, 1015.2,   94.5, -999.0
26-05-2022, 00:37:27,    245,    1.1,    9.7,   0.00,   0.00, 1015.2,   94.6, -999.0
26-05-2022, 00:37:37,    254,    2.9,    9.7,   0.00,   0.00, 1015.3,   94.7, -999.0
26-05-2022, 00:37:47,    269,    1.6,    9.7,   0.00,   0.00, 1015.3,   94.7, -999.0
26-05-2022, 00:37:57,    258,    0.1,    9.7,   0.00,   0.00, 1015.2,   94.6, -999.0
26-05-2022, 00:38:07,    258,    0.0,    9.6,   0.00,   0.00, 1015.1,   94.4, -999.0
26-05-2022, 00:38:17,    257,    0.2,    9.7,   0.00,   0.00, 1015.2,   94.8, -999.0
26-05-2022, 00:38:27,    212,    0.0,    9.7,   0.00,   0.00, 1015.2,   94.6, -999.0
26-05-2022, 00:38:37,    268,    0.1,    9.5,   0.00,   0.00, 1015.2,   94.6, -999.0
26-05-2022, 00:38:47,    280,    2.8,    9.7,   0.00,   0.00, 1015.3,   94.8, -999.0
26-05-2022, 00:38:57,    268,    2.6,    9.7,   0.00,   0.00, 1015.3,   94.8, -999.0
26-05-2022, 00:39:07,    218,    0.7,    9.7,   0.00,   0.00, 1015.3,   94.8, -999.0
26-05-2022, 00:39:17,    212,    0.8,    9.7,   0.00,   0.00, 1015.3,   94.9, -999.0
26-05-2022, 00:39:27,    208,    0.8,    9.7,   0.00,   0.00, 1015.3,   94.8, -999.0
26-05-2022, 00:39:37,    261,    0.9,    9.7,   0.00,   0.00, 1015.3,   94.9, -999.0
26-05-2022, 00:39:47,    257,    0.4,    9.7,   0.00,   0.00, 1015.2,   94.7, -999.0
26-05-2022, 00:39:57,    257,    0.6,    9.7,   0.00,   0.00, 1015.3,   94.8, -999.0
26-05-2022, 00:40:06,    257,    0.0,    9.5,   0.00,   0.00, 1015.2,   94.6, -999.0
26-05-2022, 00:40:16,    257,    0.0,    9.6,   0.00,   0.00, 1015.2,   94.4, -999.0
26-05-2022, 00:40:27,    256,    0.0,    9.5,   0.00,   0.00, 1015.2,   94.5, -999.0
26-05-2022, 00:40:36,    256,    0.0,    9.6,   0.00,   0.00, 1015.2,   94.5, -999.0
26-05-2022, 00:40:46,    256,    0.0,    9.6,   0.00,   0.00, 1015.2,   94.4, -999.0
26-05-2022, 00:40:56,    257,    0.0,    9.6,   0.00,   0.00, 1015.2,   94.5, -999.0
26-05-2022, 00:41:06,    256,    0.0,    9.6,   0.00,   0.00, 1015.2,   94.5, -999.0
26-05-2022, 00:41:16,    256,    0.0,    9.6,   0.00,   0.00, 1015.2,   94.5, -999.0
26-05-2022, 00:41:26,    257,    0.0,    9.5,   0.00,   0.00, 1015.2,   94.6, -999.0
26-05-2022, 00:41:36,    215,    0.5,    9.6,   0.00,   0.00, 1015.3,   94.8, -999.0
26-05-2022, 00:41:46,    221,    2.0,    9.7,   0.00,   0.00, 1015.3,   95.0, -999.0
26-05-2022, 00:41:56,    217,    1.2,    9.7,   0.00,   0.00, 1015.3,   94.9, -999.0
26-05-2022, 00:42:06,    217,    0.0,    9.7,   0.00,   0.00, 1015.2,   94.6, -999.0
26-05-2022, 00:42:16,    217,    0.0,    9.5,   0.00,   0.00, 1015.2,   94.6, -999.0
26-05-2022, 00:42:26,    223,    0.0,    9.6,   0.00,   0.00, 1015.2,   94.6, -999.0
26-05-2022, 00:42:36,    226,    0.5,    9.6,   0.00,   0.00, 1015.3,   94.8, -999.0
26-05-2022, 00:42:46,    224,    0.3,    9.6,   0.00,   0.00, 1015.2,   94.8, -999.0
26-05-2022, 00:42:56,    200,    1.3,    9.6,   0.00,   0.00, 1015.3,   95.0, -999.0
26-05-2022, 00:43:06,    217,    1.3,    9.7,   0.00,   0.00, 1015.3,   95.0, -999.0
26-05-2022, 00:43:15,    251,    1.2,    9.6,   0.00,   0.00, 1015.3,   95.1, -999.0
26-05-2022, 00:43:25,    209,    0.9,    9.6,   0.00,   0.00, 1015.3,   95.1, -999.0
26-05-2022, 00:43:36,    251,    2.0,    9.7,   0.00,   0.00, 1015.3,   95.0, -999.0
26-05-2022, 00:43:45,    278,    1.5,    9.6,   0.00,   0.00, 1015.3,   95.1, -999.0
26-05-2022, 00:43:55,    196,    0.5,    9.7,   0.00,   0.00, 1015.3,   95.0, -999.0
26-05-2022, 00:44:06,    243,    1.3,    9.6,   0.00,   0.00, 1015.3,   95.0, -999.0
26-05-2022, 00:44:15,    232,    1.3,    9.6,   0.00,   0.00, 1015.3,   95.0, -999.0
26-05-2022, 00:44:25,    241,    1.2,    9.6,   0.00,   0.00, 1015.3,   95.1, -999.0
26-05-2022, 00:44:35,    255,    0.6,    9.7,   0.00,   0.00, 1015.4,   94.9, -999.0
26-05-2022, 00:44:45,    254,    0.1,    9.6,   0.00,   0.00, 1015.3,   94.9, -999.0
26-05-2022, 00:44:55,    253,    1.0,    9.6,   0.00,   0.00, 1015.3,   95.1, -999.0
26-05-2022, 00:45:05,    253,    0.2,    9.6,   0.00,   0.00, 1015.3,   95.0, -999.0
26-05-2022, 00:45:15,    253,    0.0,    9.5,   0.00,   0.00, 1015.2,   94.7, -999.0
26-05-2022, 00:45:25,    253,    0.0,    9.5,   0.00,   0.00, 1015.2,   94.7, -999.0
26-05-2022, 00:45:35,    242,    0.2,    9.6,   0.00,   0.00, 1015.3,   94.9, -999.0
26-05-2022, 00:45:45,    204,    0.4,    9.7,   0.00,   0.00, 1015.3,   95.1, -999.0
26-05-2022, 00:45:55,    206,    1.2,    9.6,   0.00,   0.00, 1015.3,   95.2, -999.0
26-05-2022, 00:46:05,    210,    0.8,    9.7,   0.00,   0.00, 1015.3,   95.2, -999.0
26-05-2022, 00:46:15,    255,    1.4,    9.6,   0.00,   0.00, 1015.4,   95.2, -999.0
26-05-2022, 00:46:24,    254,    4.4,    9.6,   0.00,   0.00, 1015.4,   95.3, -999.0
26-05-2022, 00:46:35,    242,    2.6,    9.6,   0.00,   0.00, 1015.4,   95.3, -999.0
26-05-2022, 00:46:45,    247,    1.3,    9.6,   0.00,   0.00, 1015.4,   95.2, -999.0